Weather History for KORE - January, 2012

Change the Weather History Date:

Sunday, January 8, 2012

  Actual Average Record
Temperature  
Mean Temperature 31 °F -  
Max Temperature 39 °F 30 °F 55 °F (2008)
Min Temperature 21 °F 13 °F -7 °F (2015)
Degree Days  
Heating Degree Days 34    
Moisture  
Dew Point 20 °F    
Average Humidity 60    
Maximum Humidity 89    
Minimum Humidity 43    
Precipitation  
Precipitation 0.00 in - - ()
Sea Level Pressure  
Sea Level Pressure 30.13 in    
Wind  
Wind Speed 7 mph (WNW)    
Max Wind Speed 16 mph    
Max Gust Speed 25 mph    
Visibility 10 miles    
Events      
Averages and records for this station are not official NWS values.
T = Trace of Precipitation, MM = Missing Value Source: NWS Daily Summary

Daily Weather History Graph

Daily Weather History Graph

Search for Another Location

Airport or City:

Trip Planner

Search our weather history database for the weather conditions in past years. The results will help you decide how hot, cold, wet, or windy it might be!

Date:

Astronomy

Jan. 08, 2012 Rise Set
Actual Time 7:18 AM EST 4:32 PM EST
Civil Twilight 6:47 AM EST 5:04 PM EST
Nautical Twilight 6:11 AM EST 5:39 PM EST
Astronomical Twilight 5:37 AM EST 6:13 PM EST
Moon 4:13 PM EST (1/8) 6:34 AM EST (1/8)
Length of Visible Light 10h 17m
Length of Day
9h 14m
Full, 100% of the Moon is Illuminated
Jan 8
Full
Jan 9
Full
Jan 16
Last Quarter
Jan 23
New
Jan 30
First Quarter

Hourly Weather History & Observations

Time (EST) Temp. Windchill Dew Point Humidity Pressure Visibility Wind Dir Wind Speed Gust Speed Precip Events Conditions
12:52 AM 32.0 °F 25.6 °F 26.1 °F 79% 29.92 in 10.0 mi SSW 6.9 mph - N/A   Clear
1:52 AM 27.0 °F 20.5 °F 24.1 °F 89% 29.95 in 10.0 mi SSW 5.8 mph - N/A   Clear
2:52 AM 27.0 °F 23.0 °F 24.1 °F 89% 29.97 in 10.0 mi SW 3.5 mph - N/A   Clear
3:52 AM 32.0 °F 26.4 °F 26.1 °F 79% 29.98 in 10.0 mi WNW 5.8 mph - N/A   Scattered Clouds
4:52 AM 37.0 °F 31.0 °F 25.0 °F 62% 30.01 in 10.0 mi WNW 8.1 mph 18.4 mph N/A   Overcast
5:52 AM 37.0 °F 31.0 °F 24.1 °F 59% 30.03 in 10.0 mi WNW 8.1 mph - N/A   Mostly Cloudy
6:52 AM 37.0 °F 32.4 °F 24.1 °F 59% 30.06 in 10.0 mi Variable 5.8 mph - N/A   Overcast
7:52 AM 36.0 °F 31.1 °F 23.0 °F 59% 30.09 in 10.0 mi WNW 5.8 mph - N/A   Overcast
8:52 AM 36.0 °F 29.6 °F 21.0 °F 55% 30.11 in 10.0 mi WNW 8.1 mph 17.3 mph N/A   Overcast
9:52 AM 37.0 °F 27.7 °F 21.0 °F 52% 30.13 in 10.0 mi NW 16.1 mph 25.3 mph N/A   Overcast
10:52 AM 37.0 °F 29.8 °F 21.0 °F 52% 30.14 in 10.0 mi NW 10.4 mph 19.6 mph N/A   Overcast
11:52 AM 37.9 °F 30.5 °F 19.0 °F 47% 30.13 in 10.0 mi WNW 11.5 mph 21.9 mph N/A   Mostly Cloudy
12:52 PM 39.0 °F 31.8 °F 18.0 °F 43% 30.12 in 10.0 mi West 11.5 mph 18.4 mph N/A   Mostly Cloudy
1:52 PM 37.0 °F 30.4 °F 18.0 °F 46% 30.14 in 10.0 mi WNW 9.2 mph 18.4 mph N/A   Mostly Cloudy
2:52 PM 37.0 °F 28.1 °F 17.1 °F 44% 30.16 in 10.0 mi West 15.0 mph 21.9 mph N/A   Overcast
3:52 PM 35.1 °F 25.9 °F 16.0 °F 46% 30.18 in 10.0 mi WNW 13.8 mph 24.2 mph N/A   Mostly Cloudy
4:52 PM 34.0 °F 28.0 °F 16.0 °F 48% 30.20 in 10.0 mi WNW 6.9 mph - N/A   Mostly Cloudy
5:52 PM 32.0 °F 26.4 °F 16.0 °F 52% 30.22 in 10.0 mi West 5.8 mph - N/A   Clear
7:52 PM 30.0 °F 23.2 °F 15.1 °F 54% 30.26 in 10.0 mi WNW 6.9 mph - N/A   Clear
8:52 PM 28.0 °F 22.8 °F 15.1 °F 58% 30.27 in 10.0 mi NW 4.6 mph - N/A   Clear
9:52 PM 27.0 °F 20.5 °F 14.0 °F 58% 30.27 in 10.0 mi NNW 5.8 mph - N/A   Clear
10:52 PM 23.0 °F 17.0 °F 14.0 °F 68% 30.28 in 10.0 mi NW 4.6 mph - N/A   Clear
11:52 PM 21.0 °F - 12.9 °F 71% 30.29 in 10.0 mi Calm Calm - N/A   Clear